Temp
78 77 77 77 77 77 76 75 76 76 76 76 76 76 76 77 77 76 76 76 76 76 75 74 74 74 73 72 72 72 72 71 72 72 71 71 71 71 71 71 70 70
78 78 78 77 77 77 76 77 76 76 76 76 76 76 77 77 77 77 76 76 76 76 75 75 74 74 73 72 72 71 71 71 71 72 71 70 71 71 72 71 71 70
78 77 77 77 77 77 78 77 77 76 76 77 77 77 77 77 76 76 76 76 76 76 75 74 74 74 73 72 72 72 72 70 71 72 71 71 71 70 71 72 71 70
78 78 78 78 78 77 77 77 76 76 77 76 76 77 77 77 77 76 76 76 76 75 75 75 74 74 73 73 72 71 72 71 72 71 71 71 71 71 71 70 71 70
78 78 78 78 78 78 77 77 77 77 77 77 77 77 77 76 76 76 76 76 76 76 75 75 75 74 73 72 72 71 71 71 71 71 70 70 71 71 71 70 70 70
78 78 78 78 78 78 77 77 77 77 77 77 77 78 77 77 76 76 76 76 76 76 75 75 75 75 74 73 72 72 72 71 71 70 70 70 71 71 72 70 70 70
78 78 78 79 78 78 77 77 77 77 78 78 77 77 77 77 76 76 76 76 76 76 75 75 74 74 74 73 72 71 71 72 71 70 70 70 70 70 71 71 70 70
79 79 79 79 78 78 78 78 78 78 78 77 77 77 77 77 76 77 76 76 76 75 75 75 74 74 74 73 72 71 72 72 72 70 70 71 70 70 70 70 70 70
79 79 78 78 78 79 79 79 79 78 78 77 77 78 77 77 77 77 76 76 76 75 75 75 74 74 74 73 72 72 72 72 72 71 71 71 70 70 70 70 70 70
78 79 79 79 79 79 79 80 80 79 79 78 78 78 77 77 77 77 76 75 75 75 75 75 74 74 74 73 73 72 72 72 72 71 71 72 71 71 71 70 70 70
79 79 79 79 79 80 80 80 80 80 80 79 79 78 78 77 76 77 76 75 75 75 75 75 75 75 74 74 73 73 73 73 72 71 71 71 71 71 71 70 70 71
79 79 79 79 79 80 80 81 81 80 80 79 79 78 78 78 77 76 76 75 76 76 76 75 75 75 74 74 74 73 73 73 73 72 72 71 71 71 71 71 71 71
79 79 79 79 79 79 80 80 80 81 81 80 79 79 78 78 77 76 76 76 76 76 76 76 75 75 74 74 74 73 73 72 72 72 72 71 72 72 72 72 72 72
79 79 79 79 79 79 79 80 80 80 79 79 79 79 79 78 78 77 77 77 76 76 76 76 75 75 74 74 74 73 73 73 72 72 72 71 71 72 72 72 72 72
79 80 80 79 79 78 79 79 79 79 79 79 78 78 79 79 79 78 77 76 76 76 76 76 75 75 75 75 74 73 73 73 72 72 72 71 71 71 71 71 72 72
79 79 79 79 78 78 78 78 79 79 79 78 78 78 78 78 78 77 77 76 76 76 76 76 75 76 71 65 68 74 73 73 72 72 72 72 71 70 71 71 72 73
79 78 78 78 78 78 78 78 78 78 78 78 78 77 77 77 77 77 77 77 77 76 75 75 76 75 66 63 65 67 73 73 72 72 72 71 71 71 70 71 71 72
79 78 78 78 78 78 78 78 78 78 77 77 77 77 77 77 77 77 77 77 77 77 76 76 76 68 64 63 64 64 68 73 73 73 72 72 72 72 72 72 72 72
78 78 78 78 78 78 78 78 77 77 77 77 77 77 77 76 76 77 77 77 77 76 76 77 77 68 63 62 63 63 65 70 74 73 73 72 72 72 72 72 72 71
78 78 78 78 78 78 78 77 77 77 78 78 78 77 77 77 77 77 77 76 77 76 76 77 77 67 62 61 62 62 63 67 75 73 73 73 73 73 73 72 72 71
78 78 78 78 78 78 78 77 77 77 77 78 78 78 77 76 77 76 77 77 77 77 77 77 78 64 60 60 60 60 62 65 74 74 73 73 73 73 73 73 73 72
79 78 78 78 78 78 77 77 77 77 77 78 78 78 78 79 78 78 77 77 77 77 77 76 78 63 59 59 59 59 61 68 73 73 73 73 73 73 73 73 73 72
79 79 78 78 78 77 77 77 77 77 78 78 77 78 78 78 78 78 78 78 77 77 76 76 78 64 58 57 58 58 61 71 72 73 73 72 72 73 73 72 72 72
80 79 78 78 78 77 77 78 79 79 79 78 78 78 78 79 79 78 78 78 78 77 78 77 78 65 56 56 57 56 63 71 71 71 72 72 72 72 72 71 72 72
80 80 79 79 78 78 79 78 78 78 79 79 79 79 79 79 78 78 78 78 80 79 71 75 78 67 55 56 56 56 63 72 71 71 71 71 71 71 70 70 70 71
81 79 79 79 78 79 79 79 79 79 79 79 79 79 79 79 78 78 78 78 79 79 78 77 78 72 60 55 55 55 59 72 72 71 70 71 71 70 68 68 68 69
MSLP
1011.15 1011.47 1011.87 1012.19 1012.47 1012.67 1013.07 1013.47 1013.67 1013.95 1014.11 1014.27 1014.59 1014.63 1014.75 1014.71 1014.99 1015.31 1015.51 1015.75 1015.99 1016.23 1016.43 1016.67 1016.83 1017.11 1017.31 1017.55 1017.75 1018.03 1018.31 1018.47 1018.59 1018.71 1018.95 1019.11 1019.27 1019.39 1019.59 1019.71 1019.87 1019.95
1010.79 1011.03 1011.27 1011.67 1012.07 1012.31 1012.55 1012.71 1013.03 1013.35 1013.63 1013.83 1013.91 1014.11 1014.27 1014.51 1014.71 1014.95 1015.31 1015.59 1015.79 1016.03 1016.19 1016.47 1016.67 1016.87 1017.15 1017.43 1017.67 1017.95 1018.23 1018.35 1018.55 1018.51 1018.87 1019.03 1019.11 1019.27 1019.39 1019.47 1019.63 1019.79
1010.35 1010.75 1011.07 1011.43 1011.67 1011.83 1011.99 1012.19 1012.47 1012.75 1013.03 1013.19 1013.43 1013.79 1014.07 1014.15 1014.51 1014.71 1014.95 1015.27 1015.63 1015.83 1016.07 1016.27 1016.51 1016.71 1016.91 1017.15 1017.43 1017.75 1017.99 1018.23 1018.43 1018.43 1018.67 1018.83 1018.95 1019.15 1019.15 1019.27 1019.51 1019.67
1009.91 1010.11 1010.43 1010.75 1010.99 1011.35 1011.59 1012.03 1012.31 1012.47 1012.59 1013.03 1013.27 1013.35 1013.63 1013.91 1014.19 1014.55 1014.79 1015.03 1015.39 1015.63 1015.83 1016.11 1016.31 1016.51 1016.71 1016.95 1017.27 1017.59 1017.71 1017.91 1017.99 1018.19 1018.47 1018.63 1018.75 1018.87 1019.03 1019.19 1019.35 1019.55
1009.39 1009.71 1009.99 1010.27 1010.47 1010.75 1011.19 1011.63 1011.91 1012.11 1012.35 1012.39 1012.55 1012.95 1013.43 1013.79 1014.07 1014.39 1014.59 1014.83 1015.07 1015.39 1015.67 1015.91 1016.11 1016.31 1016.47 1016.75 1017.03 1017.39 1017.55 1017.75 1017.91 1018.07 1018.35 1018.55 1018.55 1018.71 1018.83 1019.03 1019.27 1019.43
1008.99 1009.19 1009.47 1009.83 1010.11 1010.47 1010.87 1011.11 1011.31 1011.59 1011.87 1012.23 1012.39 1012.51 1012.87 1013.27 1013.71 1014.03 1014.31 1014.63 1014.79 1015.07 1015.39 1015.63 1015.91 1016.07 1016.19 1016.47 1016.79 1017.03 1017.23 1017.55 1017.71 1017.91 1018.19 1018.35 1018.47 1018.51 1018.63 1018.79 1018.99 1019.23
1008.67 1008.99 1009.35 1009.55 1009.87 1010.07 1010.43 1010.63 1010.87 1011.11 1011.39 1011.59 1011.91 1012.31 1012.47 1012.99 1013.43 1013.71 1013.95 1014.19 1014.47 1014.79 1015.07 1015.35 1015.63 1015.83 1015.95 1016.19 1016.51 1016.75 1016.95 1017.15 1017.43 1017.75 1017.95 1018.11 1018.23 1018.43 1018.47 1018.59 1018.75 1018.91
1008.19 1008.47 1008.79 1009.15 1009.51 1009.75 1010.07 1010.27 1010.51 1010.75 1010.99 1011.43 1011.87 1011.99 1012.15 1012.51 1012.87 1013.23 1013.55 1013.87 1014.19 1014.43 1014.63 1014.87 1015.15 1015.39 1015.55 1015.79 1016.15 1016.47 1016.75 1016.91 1017.19 1017.47 1017.67 1017.83 1018.03 1018.19 1018.27 1018.39 1018.51 1018.67
1007.71 1008.11 1008.39 1008.79 1009.19 1009.39 1009.63 1009.83 1010.11 1010.43 1010.67 1011.15 1011.47 1011.75 1011.87 1012.07 1012.39 1012.75 1013.15 1013.47 1013.79 1014.03 1014.31 1014.55 1014.75 1014.95 1015.11 1015.39 1015.71 1016.03 1016.35 1016.63 1016.79 1017.07 1017.31 1017.55 1017.79 1017.87 1018.03 1018.19 1018.39 1018.51
1007.35 1007.55 1007.95 1008.27 1008.67 1008.79 1009.11 1009.35 1009.67 1010.07 1010.35 1010.79 1011.07 1011.35 1011.75 1011.87 1011.99 1012.35 1012.71 1013.11 1013.43 1013.71 1013.95 1014.15 1014.35 1014.51 1014.71 1014.91 1015.23 1015.55 1015.87 1016.19 1016.43 1016.67 1016.87 1017.07 1017.31 1017.55 1017.75 1017.99 1018.11 1018.35
1006.87 1007.15 1007.55 1007.79 1007.99 1008.27 1008.67 1009.03 1009.39 1009.71 1010.03 1010.43 1010.79 1011.15 1011.35 1011.67 1011.91 1011.99 1012.35 1012.71 1013.07 1013.27 1013.51 1013.71 1013.79 1013.99 1014.27 1014.55 1014.83 1015.03 1015.35 1015.63 1015.95 1016.27 1016.51 1016.75 1016.95 1017.15 1017.39 1017.59 1017.79 1017.91
1006.27 1006.63 1006.83 1007.11 1007.51 1007.87 1008.23 1008.59 1008.95 1009.31 1009.63 1009.99 1010.31 1010.75 1011.07 1011.27 1011.51 1011.71 1011.83 1012.15 1012.35 1012.55 1012.79 1012.99 1013.19 1013.47 1013.75 1014.03 1014.31 1014.59 1014.91 1015.19 1015.51 1015.87 1016.19 1016.47 1016.67 1016.79 1016.95 1017.11 1017.35 1017.47
1005.59 1005.75 1006.03 1006.51 1006.91 1007.27 1007.67 1008.07 1008.43 1008.67 1009.07 1009.51 1009.75 1010.19 1010.63 1010.95 1011.11 1011.31 1011.35 1011.55 1011.75 1011.95 1012.19 1012.43 1012.75 1012.99 1013.31 1013.59 1013.87 1014.15 1014.51 1014.87 1015.23 1015.55 1015.87 1016.11 1016.19 1016.35 1016.51 1016.67 1016.83 1016.99
1004.67 1004.91 1005.47 1005.87 1006.27 1006.71 1007.03 1007.31 1007.71 1008.11 1008.43 1008.79 1009.23 1009.67 1009.95 1010.23 1010.55 1010.83 1010.91 1011.07 1011.15 1011.35 1011.55 1011.87 1012.27 1012.59 1012.83 1013.07 1013.35 1013.67 1014.07 1014.43 1014.79 1015.19 1015.47 1015.67 1015.79 1015.95 1016.15 1016.31 1016.39 1016.55
1003.95 1004.51 1004.91 1005.39 1005.83 1006.27 1006.63 1006.95 1007.23 1007.59 1007.99 1008.35 1008.67 1008.95 1009.23 1009.47 1009.79 1010.19 1010.55 1010.71 1010.71 1010.91 1011.19 1011.47 1011.79 1011.99 1012.15 1012.47 1012.91 1013.31 1013.55 1013.99 1014.39 1014.71 1014.99 1015.23 1015.43 1015.67 1015.83 1015.95 1016.03 1016.15
1003.59 1004.07 1004.51 1004.95 1005.51 1005.87 1006.15 1006.47 1006.87 1007.23 1007.59 1007.91 1008.15 1008.35 1008.63 1008.95 1009.35 1009.63 1009.87 1010.07 1010.35 1010.59 1010.83 1011.07 1011.23 1011.27 1011.43 1011.79 1012.11 1012.51 1013.03 1013.43 1013.83 1014.11 1014.39 1014.67 1015.03 1015.35 1015.51 1015.55 1015.59 1015.71
1003.31 1003.71 1004.11 1004.63 1004.79 1005.27 1005.71 1006.15 1006.51 1006.79 1007.11 1007.35 1007.59 1007.87 1008.19 1008.51 1008.83 1009.15 1009.23 1009.39 1009.71 1010.07 1010.43 1010.55 1010.59 1010.59 1010.91 1011.35 1011.71 1012.03 1012.43 1012.87 1013.27 1013.59 1013.87 1014.15 1014.47 1014.79 1014.99 1015.11 1015.23 1015.27
1002.59 1003.11 1003.71 1003.99 1004.39 1004.79 1005.15 1005.55 1005.95 1006.31 1006.59 1006.79 1007.11 1007.51 1007.71 1007.99 1008.27 1008.27 1008.47 1008.83 1009.19 1009.51 1009.75 1009.87 1009.95 1009.99 1010.47 1010.87 1011.27 1011.63 1011.87 1012.23 1012.63 1013.07 1013.39 1013.67 1013.95 1014.15 1014.31 1014.51 1014.71 1014.91
1002.11 1002.67 1002.99 1003.43 1003.75 1004.11 1004.59 1005.07 1005.47 1005.75 1006.03 1006.39 1006.67 1006.71 1007.07 1007.39 1007.39 1007.71 1008.03 1008.23 1008.59 1008.95 1009.15 1009.27 1009.43 1009.51 1010.03 1010.39 1010.79 1011.15 1011.43 1011.71 1012.11 1012.39 1012.83 1013.15 1013.35 1013.51 1013.79 1013.99 1014.19 1014.47
1001.55 1001.99 1002.39 1002.67 1003.07 1003.63 1004.07 1004.55 1004.91 1005.15 1005.27 1005.47 1005.83 1006.23 1006.59 1006.79 1006.99 1007.27 1007.43 1007.75 1007.95 1008.19 1008.51 1008.71 1008.87 1008.99 1009.51 1009.95 1010.35 1010.71 1011.03 1011.31 1011.51 1011.91 1012.23 1012.47 1012.71 1012.91 1013.15 1013.39 1013.59 1013.87
1001.19 1001.51 1001.87 1002.31 1002.75 1003.15 1003.59 1003.95 1004.19 1004.51 1004.83 1005.03 1005.31 1005.59 1005.91 1006.15 1006.39 1006.79 1006.87 1007.03 1007.27 1007.59 1008.03 1008.27 1008.15 1008.47 1009.03 1009.47 1009.87 1010.23 1010.59 1010.91 1011.07 1011.43 1011.79 1011.99 1012.11 1012.27 1012.47 1012.67 1012.95 1013.27
1000.51 1001.03 1001.51 1001.99 1002.43 1002.79 1003.19 1003.47 1003.67 1003.87 1004.19 1004.39 1004.75 1004.95 1005.15 1005.47 1005.83 1006.07 1006.39 1006.63 1006.79 1007.15 1007.47 1007.71 1007.55 1007.99 1008.51 1008.99 1009.35 1009.79 1010.23 1010.63 1010.75 1011.07 1011.31 1011.51 1011.67 1011.75 1011.95 1012.15 1012.43 1012.83
999.83 1000.39 1000.99 1001.47 1001.83 1002.31 1002.63 1002.83 1003.11 1003.35 1003.67 1003.83 1004.31 1004.43 1004.83 1005.11 1005.23 1005.47 1005.63 1005.99 1006.31 1006.55 1006.87 1006.99 1007.15 1007.51 1007.95 1008.43 1008.83 1009.31 1009.95 1010.19 1010.43 1010.63 1010.87 1011.11 1011.15 1011.23 1011.55 1011.83 1012.11 1012.35
999.03 999.67 1000.39 1000.83 1001.23 1001.47 1001.63 1001.91 1002.19 1002.51 1002.87 1002.99 1003.59 1004.07 1004.43 1004.35 1004.59 1004.99 1005.11 1005.31 1005.67 1005.91 1005.95 1006.39 1006.55 1006.95 1007.39 1007.87 1008.35 1008.91 1009.15 1009.51 1009.83 1010.19 1010.47 1010.67 1010.79 1011.03 1011.31 1011.55 1011.71 1011.87
998.59 999.19 999.71 1000.15 1000.51 1000.67 1000.95 1001.35 1001.59 1001.79 1002.07 1002.67 1003.03 1003.27 1003.43 1003.67 1004.19 1004.51 1004.67 1004.87 1004.91 1005.07 1005.39 1005.87 1006.03 1006.51 1006.99 1007.39 1007.91 1008.35 1008.71 1008.87 1009.31 1009.79 1010.27 1010.43 1010.63 1010.99 1011.11 1011.31 1011.51 1011.63
998.19 998.71 999.03 999.43 999.71 1000.03 1000.47 1000.75 1001.11 1001.75 1002.15 1002.43 1002.63 1002.83 1003.19 1003.43 1003.71 1003.99 1004.31 1004.39 1004.43 1004.79 1005.11 1005.31 1005.55 1006.03 1006.59 1006.95 1007.39 1007.83 1008.15 1008.35 1008.79 1009.51 1009.91 1010.07 1010.31 1010.63 1011.15 1011.35 1011.43 1011.59
Wind_Speed
14 12 13 12 12 11 11 11 10 10 10 9 9 9 10 9 7 9 10 9 9 9 8 7 7 7 6 7 7 6 6 7 6 6 6 6 6 6 5 6 5 5
15 14 12 11 10 10 10 11 11 11 11 10 10 9 8 7 9 9 9 10 9 9 7 7 7 8 8 7 7 7 6 6 6 4 6 7 6 6 6 6 6 4
15 14 14 14 13 14 14 12 11 11 11 11 10 8 8 8 8 8 8 10 9 9 8 8 8 8 8 7 7 7 7 7 7 6 6 8 6 6 6 6 5 6
16 16 15 15 14 13 12 11 11 10 10 9 10 10 8 7 9 8 8 9 8 8 7 7 9 7 8 8 7 7 7 7 7 6 7 5 6 6 6 5 5 4
17 16 14 14 13 13 11 12 13 12 12 12 11 9 8 8 9 8 8 9 9 8 8 8 8 8 8 8 8 7 7 6 6 6 6 7 6 6 5 5 6 6
14 14 14 14 14 13 12 13 14 13 13 12 11 10 10 10 9 9 9 9 7 8 8 7 8 8 8 8 8 8 7 7 6 7 7 8 6 5 4 6 7 7
15 15 15 13 14 14 13 13 13 12 12 11 10 10 10 10 10 11 11 11 10 10 10 10 10 9 8 8 8 9 8 8 7 8 9 7 6 6 5 6 7 7
16 15 14 14 15 14 14 13 13 12 11 10 11 11 11 12 12 10 10 11 10 11 10 10 10 11 9 9 9 9 9 6 7 8 9 8 7 7 7 6 6 7
15 14 15 15 16 14 14 14 12 11 10 11 11 10 10 11 12 11 11 11 11 11 11 11 11 11 10 10 10 11 10 8 8 9 10 9 8 8 8 7 7 7
15 15 16 16 15 15 17 14 12 11 10 11 11 10 11 10 11 12 11 11 12 11 11 11 11 11 11 10 11 11 11 11 10 10 10 10 10 8 8 8 8 8
17 16 16 17 17 14 15 13 12 11 10 12 11 11 11 10 10 10 11 12 12 13 12 12 13 13 12 10 10 10 11 11 10 10 10 10 9 9 8 8 8 9
17 16 18 18 17 16 16 14 12 13 12 10 11 12 11 11 12 11 12 13 13 13 13 13 13 13 13 12 11 10 11 10 9 9 9 9 8 8 8 8 8 9
18 18 17 17 16 16 14 14 14 12 12 12 11 12 11 10 11 12 12 13 13 13 13 13 13 12 12 12 12 11 11 11 10 9 9 8 8 8 8 8 8 8
18 18 16 16 15 14 15 15 15 14 14 13 12 13 12 13 12 13 12 12 13 13 13 12 12 12 12 12 12 12 11 11 10 9 9 8 8 8 8 8 8 8
17 15 14 14 15 15 15 15 15 14 13 12 13 13 12 13 13 13 13 13 13 13 12 11 12 12 11 12 12 12 11 10 10 10 9 9 8 8 7 8 8 8
15 14 14 14 14 15 15 15 14 13 13 14 14 14 13 13 12 13 14 15 14 13 12 11 12 10 13 18 16 12 12 10 10 10 10 10 10 8 8 9 9 8
14 14 14 15 16 15 14 14 14 13 14 14 14 14 14 13 13 15 15 14 14 13 13 12 12 11 17 18 19 18 13 11 11 10 10 11 9 10 10 9 8 8
16 15 15 16 15 16 15 15 14 14 15 15 14 14 13 13 15 16 15 14 13 12 12 13 13 15 18 19 19 20 17 12 10 9 9 9 10 11 10 9 8 8
15 16 17 16 16 16 14 14 15 15 15 15 16 15 13 16 17 16 15 14 14 15 15 13 12 16 18 20 20 20 20 16 10 11 9 9 10 11 11 11 10 8
16 16 17 17 16 15 15 15 15 17 16 15 14 13 15 15 15 16 15 15 15 15 13 13 15 15 19 20 20 21 21 18 11 12 10 10 12 11 10 11 11 10
16 16 17 15 15 15 15 16 17 16 16 14 14 15 16 16 16 16 15 15 16 14 13 14 13 17 19 21 21 22 21 19 12 11 10 11 11 12 12 12 11 9
16 16 15 14 15 15 16 17 16 17 17 15 13 13 13 13 13 14 15 15 14 14 15 15 12 18 20 21 22 21 22 13 12 12 12 12 12 12 12 10 9 10
16 17 16 16 16 16 17 17 17 16 15 13 14 14 13 14 15 14 14 14 15 15 16 15 13 16 21 22 22 23 17 12 12 11 11 12 12 12 10 9 8 9
17 16 16 17 17 18 19 18 17 14 15 14 15 14 14 14 13 13 14 14 15 16 17 16 15 15 22 22 23 23 20 14 12 11 12 12 11 9 8 8 10 16
15 16 16 16 17 18 17 17 17 16 14 13 13 13 14 13 12 13 13 13 15 16 17 18 14 14 21 22 23 23 20 13 12 10 11 11 10 9 8 8 8 11
14 16 16 17 18 17 15 15 13 11 13 14 13 12 12 12 12 13 14 13 12 14 11 15 15 11 18 22 23 24 24 15 11 10 11 12 10 9 8 7 8 8
Wind_Direction
200 197 200 199 201 199 194 195 197 200 205 203 202 206 205 207 188 193 198 198 198 195 190 185 184 180 179 180 183 178 184 195 198 194 195 193 203 193 197 198 193 197
201 199 200 199 201 198 199 198 196 198 203 204 207 204 204 189 194 192 193 197 197 199 187 185 184 184 181 181 178 180 188 186 202 178 192 193 206 190 205 201 201 186
199 199 198 198 200 200 199 198 198 199 200 203 203 200 198 192 187 189 190 193 195 197 189 189 184 184 184 184 178 183 187 189 202 189 193 206 197 192 207 191 191 187
202 200 199 200 201 201 197 195 201 203 202 196 199 200 194 189 187 186 189 190 191 192 189 184 190 183 186 183 178 191 193 197 200 187 197 206 203 200 201 184 191 180
200 200 201 201 202 201 194 197 200 201 200 201 197 189 188 186 185 186 186 192 194 192 188 190 189 191 188 185 180 194 191 196 188 184 196 207 204 193 197 178 189 195
203 202 200 200 200 198 197 200 201 200 201 200 196 188 192 189 188 188 187 190 188 188 186 186 189 193 187 186 186 200 193 190 187 183 197 209 200 196 194 189 190 197
200 199 201 202 203 202 202 202 202 202 201 200 192 194 186 186 189 191 191 193 191 192 191 191 193 195 194 190 193 200 201 199 188 187 203 209 198 198 200 191 197 204
199 198 199 200 202 202 205 203 202 201 198 192 197 197 188 188 191 191 192 191 192 196 195 194 194 198 194 192 195 200 203 194 196 193 207 212 198 209 193 198 195 204
196 197 197 199 202 204 206 204 202 200 193 195 195 195 194 193 190 189 190 191 196 196 195 196 196 199 199 196 199 199 202 201 202 202 207 210 207 209 196 190 199 205
198 198 196 199 202 205 206 204 200 198 193 197 195 193 194 196 191 189 189 191 197 197 197 197 198 201 201 199 200 198 201 204 203 205 209 212 211 204 194 190 200 204
200 197 199 201 204 203 204 200 200 197 195 197 192 197 195 192 194 190 190 193 198 199 198 199 201 201 202 200 199 199 202 204 203 205 208 209 208 207 199 197 200 210
200 199 201 201 201 203 203 199 197 199 198 195 194 198 195 196 195 193 194 197 201 201 200 201 200 201 202 200 195 197 202 203 203 203 204 202 204 202 199 197 205 207
201 202 200 198 198 199 198 197 198 196 194 195 192 196 194 196 199 199 200 201 204 202 203 201 200 201 201 200 199 199 198 199 200 200 197 198 206 202 197 199 204 203
204 202 199 198 196 196 197 198 197 197 197 194 189 194 197 200 198 201 203 204 206 205 205 200 199 201 201 201 200 198 196 199 198 193 192 199 204 200 197 202 201 201
202 199 198 196 195 196 198 198 197 197 194 192 193 196 199 200 200 200 203 207 209 206 203 199 200 204 202 198 198 198 196 194 194 193 194 200 201 196 198 202 201 205
198 196 195 194 195 197 198 197 196 194 193 195 197 197 197 196 197 201 205 208 206 205 202 201 205 207 204 196 194 194 192 193 191 197 198 203 200 199 202 203 207 206
195 197 193 195 197 197 196 195 195 193 196 198 198 196 195 193 196 203 207 208 207 203 202 204 208 209 199 190 194 191 189 190 192 195 198 199 200 203 208 205 210 207
196 193 194 198 195 197 194 194 194 195 198 198 197 197 195 193 200 206 207 206 207 204 205 207 210 209 190 189 190 190 189 190 191 193 192 197 202 206 211 213 207 203
193 193 197 196 196 195 192 191 195 198 199 197 199 197 193 198 204 204 206 205 205 207 210 207 212 203 189 187 188 189 191 190 195 195 188 196 202 204 211 212 211 208
192 194 197 198 193 190 191 193 196 200 200 199 198 195 199 204 206 206 206 205 207 209 208 209 214 198 188 186 186 188 191 192 199 194 199 201 204 205 209 210 209 207
194 197 199 195 192 191 192 196 198 200 200 199 197 198 200 204 205 206 207 206 207 207 207 211 215 191 185 184 185 188 191 192 199 197 202 206 208 211 210 210 208 201
194 196 196 193 192 193 195 198 199 200 200 198 199 203 205 206 209 209 209 209 207 206 209 213 212 185 183 183 186 188 186 190 199 201 203 206 212 212 209 208 200 193
194 194 193 192 192 194 198 200 200 201 201 197 202 203 201 204 208 207 209 208 206 205 208 213 213 185 182 182 185 185 178 195 199 203 205 208 214 210 206 199 191 192
193 191 192 193 193 197 199 200 200 200 200 196 201 200 204 206 203 207 210 209 208 209 209 210 214 186 182 182 183 181 182 192 197 197 206 210 213 206 197 194 194 190
191 192 195 196 198 202 199 199 199 200 199 194 203 204 208 204 202 209 211 211 213 213 206 209 212 190 183 181 182 182 187 194 190 196 203 208 204 200 191 194 192 191
192 193 197 197 201 200 198 202 198 196 199 202 207 208 206 203 205 211 211 212 210 214 207 209 208 187 184 182 184 185 188 190 187 191 201 202 199 191 186 194 185 187